Weather History for Beaufort, NC

Change the Weather History Date:

Friday, February 17, 2012

  Actual Average Record
Temperature  
Mean Temperature 56 °F -  
Max Temperature 63 °F 57 °F 71 °F (1990)
Min Temperature 46 °F 38 °F 14 °F (1958)
Degree Days  
Heating Degree Days 10    
Growing Degree Days 6 (Base 50)    
Moisture  
Dew Point 47 °F    
Average Humidity 83    
Maximum Humidity 100    
Minimum Humidity 52    
Precipitation  
Precipitation 0.00 in - - ()
Sea Level Pressure  
Sea Level Pressure 30.05 in    
Wind  
Wind Speed 9 mph (North)    
Max Wind Speed 13 mph    
Max Gust Speed -    
Visibility 10 miles    
Events      
Averages and records for this station are not official NWS values.
T = Trace of Precipitation, MM = Missing Value Source: NWS Daily Summary

Daily Weather History Graph

Daily Weather History Graph

Search for Another Location

Airport:

Trip Planner

Search our weather history database for the weather conditions in past years. The results will help you decide how hot, cold, wet, or windy it might be!

Date:

Astronomy

Feb. 17, 2012 Rise Set
Actual Time 6:50 AM EST 5:51 PM EST
Civil Twilight 6:24 AM EST 6:16 PM EST
Nautical Twilight 5:55 AM EST 6:46 PM EST
Astronomical Twilight 5:26 AM EST 7:15 PM EST
Moon 3:32 AM EST (2/17) 1:49 PM EST (2/17)
Length of Visible Light 11h 51m
Length of Day
11h 00m
Waning Crescent, 19% of the Moon is Illuminated
Feb 17
Waning Crescent
Feb 21
New
Feb 29
First Quarter
Mar 8
Full
Mar 14
Last Quarter

Hourly Weather History & Observations

Time (EST) Temp. Windchill Dew Point Humidity Pressure Visibility Wind Dir Wind Speed Gust Speed Precip Events Conditions
12:56 AM 54.0 °F - 54.0 °F 100% 29.98 in 10.0 mi NNW 9.2 mph - N/A   Overcast
1:56 AM 53.1 °F - 52.0 °F 96% 29.98 in 10.0 mi NNW 10.4 mph - N/A   Overcast
2:56 AM 52.0 °F - 52.0 °F 100% 29.97 in 10.0 mi NNW 12.7 mph - N/A   Overcast
3:56 AM 51.1 °F - 50.0 °F 96% 29.99 in 10.0 mi NW 12.7 mph - N/A   Overcast
5:56 AM 50.0 °F - 48.0 °F 93% 30.02 in 10.0 mi NNW 6.9 mph - N/A   Overcast
6:56 AM 48.9 °F - 48.0 °F 97% 30.04 in 9.0 mi NNW 10.4 mph - N/A   Overcast
7:56 AM 48.9 °F - 46.9 °F 93% 30.06 in 8.0 mi NNW 12.7 mph - N/A   Overcast
8:56 AM 50.0 °F - 46.9 °F 89% 30.09 in 10.0 mi NNW 9.2 mph - N/A   Overcast
9:44 AM 51.8 °F - 46.4 °F 82% 30.08 in 10.0 mi NNW 12.7 mph - N/A   Partly Cloudy
9:56 AM 51.1 °F - 48.0 °F 89% 30.09 in 10.0 mi NNW 10.4 mph - N/A   Partly Cloudy
10:56 AM 55.0 °F - 48.0 °F 77% 30.09 in 10.0 mi NNW 9.2 mph - N/A   Clear
11:56 AM 59.0 °F - 48.0 °F 67% 30.07 in 10.0 mi NNW 6.9 mph - N/A   Clear
12:56 PM 63.0 °F - 46.0 °F 54% 30.04 in 10.0 mi North 8.1 mph - N/A   Clear
1:56 PM 63.0 °F - 45.0 °F 52% 30.01 in 10.0 mi North 6.9 mph - N/A   Clear
2:56 PM 60.1 °F - 45.0 °F 57% 30.02 in 10.0 mi NE 10.4 mph - N/A   Scattered Clouds
3:56 PM 57.9 °F - 46.0 °F 65% 30.02 in 10.0 mi NE 8.1 mph - N/A   Scattered Clouds
4:56 PM 57.9 °F - 46.0 °F 65% 30.04 in 10.0 mi NE 5.8 mph - N/A   Clear
5:56 PM 54.0 °F - 46.0 °F 75% 30.05 in 10.0 mi ENE 3.5 mph - N/A   Clear
6:56 PM 50.0 °F - 46.0 °F 86% 30.08 in 10.0 mi East 3.5 mph - N/A   Clear
7:56 PM 50.0 °F - 46.9 °F 89% 30.10 in 9.0 mi Calm Calm - N/A   Clear
8:56 PM 50.0 °F - 46.9 °F 89% 30.11 in 10.0 mi ENE 3.5 mph - N/A   Clear
9:56 PM 48.0 °F - 46.0 °F 93% 30.11 in 9.0 mi Calm Calm - N/A   Clear
10:56 PM 48.0 °F - 45.0 °F 89% 30.11 in 10.0 mi NE 3.5 mph - N/A   Clear
11:56 PM 46.0 °F 44.8 °F 44.1 °F 93% 30.09 in 10.0 mi East 3.5 mph - N/A   Clear